Location: Marshall
(39.8477°N, 87.1868°W)
Time: 03:24:57
(UTC+00:00)

Envisat - Pass Details

Date: 14 May 2026
Orbit: 761 x 763 km, 98.4° (Epoch: 9 June)

Event Time Altitude Azimuth Distance (km) Brightness Sun altitude
Rises 09:32:53 0° 358° (N) 3,231 6.8 -11.0°
Reaches altitude 10° 09:35:37 10° 344° (NNW) 2,301 5.7 -10.6°
Maximum altitude 09:39:27 22° 295° (WNW) 1,610 4.4 -10.0°
Enters shadow 09:42:57 11° 248° (WSW) 2,191 4.7 -9.5°
